Theta_e
338 337 338 338 339 338 336 336 335 335 335 334 335 335 335 335 334 334 334 334 334 333 333 334 333 333 333 334 335 335 335 332 331 333 333 333 335 335 336 337 338 337 337 339 341 342 341 341 340 340 339 338 338 338 339 339 338 336 335 334 332 328 325 323 326 332 334 333 333 333 334 336 337 336 336 336 336 336 337 337 337 337 338 337 338
336 336 337 337 338 337 336 336 336 336 335 334 335 335 335 335 334 334 333 333 334 334 334 334 334 335 334 334 335 336 334 333 334 334 333 333 334 335 336 337 338 338 339 340 342 341 341 340 339 340 338 338 338 339 339 338 336 334 333 331 329 326 324 323 323 328 332 332 332 332 333 334 336 336 337 336 336 337 336 337 337 337 337 337 338
335 335 336 336 336 337 336 336 337 335 335 335 335 336 335 334 333 333 332 333 335 335 335 334 336 336 334 333 335 335 334 334 335 335 335 334 335 335 336 337 338 339 340 340 341 341 340 339 338 338 338 338 338 339 337 334 333 331 330 328 327 325 324 323 322 328 331 331 331 332 333 334 336 336 337 336 335 336 336 336 337 337 337 337 337
335 335 335 336 335 336 336 335 336 335 335 334 335 335 334 333 333 333 333 334 335 335 336 335 336 335 334 335 335 335 335 335 335 336 336 336 336 337 337 338 339 341 341 341 341 340 339 339 338 338 337 338 338 339 336 332 329 327 327 326 325 324 323 321 324 329 330 331 331 333 334 335 336 336 337 336 335 336 336 337 338 338 337 337 337
335 335 334 335 334 335 335 335 335 335 335 334 335 335 333 333 332 332 334 335 335 335 335 335 335 335 335 336 335 336 336 335 335 337 337 337 338 337 338 338 340 341 341 341 341 340 339 339 339 338 338 338 338 338 334 329 326 325 325 325 325 324 322 322 325 328 329 330 332 333 334 335 336 337 336 334 336 337 336 337 337 337 337 337 337
334 333 333 334 334 334 334 334 334 335 335 334 335 334 333 332 332 332 334 335 334 335 335 335 336 336 336 335 335 336 336 334 335 336 337 338 338 338 338 339 341 341 340 340 340 339 339 339 339 338 338 338 338 335 330 325 323 324 326 326 325 324 322 322 325 328 329 330 332 332 333 335 336 336 335 333 336 336 337 337 337 337 337 337 337
331 332 333 333 334 334 332 333 333 334 335 334 334 334 334 332 331 332 334 335 334 335 335 336 336 335 335 334 334 335 336 335 335 336 337 338 339 339 339 339 341 340 339 340 340 340 340 340 339 339 339 338 336 331 326 323 324 327 329 328 326 325 323 322 324 327 329 330 331 331 332 334 335 335 334 333 336 336 336 337 337 337 337 337 336
330 332 332 332 333 334 332 331 333 334 334 333 334 334 333 333 330 330 334 334 334 336 336 336 336 335 334 334 334 334 336 336 336 336 336 338 339 339 340 341 341 340 340 339 339 340 340 340 339 337 336 335 333 328 324 324 327 331 331 328 327 326 325 323 323 327 329 330 330 330 332 333 334 335 334 334 336 336 336 336 336 336 336 336 336
330 332 331 333 333 333 333 331 333 334 334 333 334 334 333 333 330 330 333 334 335 337 336 336 336 335 334 333 333 334 335 335 336 335 335 337 338 338 339 340 340 340 340 340 339 339 339 339 338 335 333 333 332 329 326 327 331 333 332 329 328 327 325 324 324 326 328 329 330 331 332 332 333 334 334 334 336 335 335 335 334 334 334 334 335
330 332 332 333 332 333 333 330 331 333 334 333 334 334 334 333 332 332 332 333 335 335 335 336 336 335 334 332 331 333 334 334 335 334 335 336 336 336 337 338 338 339 339 339 339 338 338 337 336 334 332 333 333 331 328 330 332 333 332 329 328 327 326 324 324 325 326 328 330 331 332 332 333 334 333 334 334 333 334 333 332 332 333 334 334
330 332 333 333 332 333 331 329 330 333 334 333 334 333 334 333 332 332 332 333 334 335 335 335 336 334 333 331 329 331 333 335 335 333 334 334 335 334 334 335 336 336 336 336 337 337 337 334 334 333 332 334 333 330 329 331 332 331 330 328 328 328 325 324 324 324 325 327 329 330 331 332 333 333 332 332 332 332 332 332 331 331 332 332 332
331 332 333 334 333 331 328 330 331 332 333 333 333 331 332 333 332 332 332 332 333 334 334 334 334 333 333 329 326 330 332 334 334 332 332 333 333 333 332 333 333 334 334 334 335 335 335 333 334 333 331 333 332 331 331 331 329 327 327 327 328 326 325 324 322 322 324 327 329 330 330 331 332 332 331 332 332 331 331 332 331 331 331 331 330
331 331 333 334 334 330 326 330 331 330 332 331 328 329 332 332 331 331 330 332 331 332 333 333 333 332 331 327 325 329 331 333 333 332 332 332 332 332 332 332 332 333 333 334 334 334 334 333 333 332 332 331 330 330 330 329 326 326 327 328 327 325 323 322 320 319 321 325 327 329 329 330 331 331 330 330 332 331 331 332 331 331 330 329 329
329 330 333 334 334 330 326 330 331 330 331 328 326 329 331 330 330 330 329 330 330 332 332 331 331 332 330 325 324 330 332 334 333 331 331 331 332 331 330 330 331 331 332 334 334 333 333 333 332 331 331 330 330 329 326 325 325 326 327 327 325 323 321 320 318 317 319 323 326 327 328 330 330 329 329 329 331 331 331 331 330 329 328 328 328
328 330 333 334 334 330 327 330 330 330 331 330 329 329 330 329 329 328 329 329 329 331 331 330 330 331 329 324 324 331 333 333 332 330 331 332 331 331 329 328 328 329 331 332 333 332 332 331 331 330 330 329 329 326 324 324 325 326 326 325 323 322 320 319 317 316 321 325 327 327 327 329 329 329 328 329 329 329 329 329 328 327 327 327 327
328 330 333 333 332 330 330 331 331 331 332 333 331 330 330 328 326 326 329 328 328 330 329 329 330 331 329 324 325 332 333 331 331 330 332 333 331 331 329 328 327 327 329 330 331 331 331 331 331 330 329 329 327 324 324 325 326 325 324 323 322 321 320 319 316 317 322 324 326 328 328 329 329 328 328 328 327 327 327 327 326 326 326 326 326
328 330 333 332 331 331 332 332 332 332 332 332 331 330 329 328 326 326 328 327 328 329 329 329 329 330 329 326 327 332 332 331 332 332 332 332 331 330 328 328 328 328 328 328 329 330 331 331 330 330 329 327 325 323 324 324 325 324 324 323 322 321 320 319 317 317 321 323 325 327 328 328 328 328 327 327 326 326 325 325 325 325 324 324 324
327 330 333 331 331 331 331 332 333 333 332 331 331 329 329 329 328 327 328 327 326 327 328 328 326 327 328 327 327 330 331 331 331 331 331 331 331 329 327 327 328 328 328 328 327 328 329 329 329 330 328 325 323 323 323 323 323 323 323 322 322 321 319 318 317 318 322 324 325 326 327 327 327 327 327 326 326 325 324 324 324 324 323 323 322
327 330 333 331 331 330 331 332 333 333 332 332 331 329 329 329 327 327 328 327 326 326 327 326 324 323 325 326 326 329 331 330 330 330 330 330 329 327 326 326 326 327 327 327 326 326 328 328 329 329 326 323 322 322 323 323 322 322 321 321 321 321 320 318 317 319 323 324 324 324 326 326 326 327 326 326 325 324 323 322 323 322 322 322 321
328 330 332 331 330 330 331 332 331 332 332 331 331 330 329 329 327 327 328 327 327 326 326 324 322 320 320 322 325 328 330 329 329 329 329 329 328 326 326 326 326 326 326 325 324 323 324 326 327 327 325 322 322 322 322 323 323 322 322 321 321 320 320 319 318 320 323 324 323 323 325 325 326 326 325 325 324 323 322 321 321 321 321 321 321
328 330 331 330 331 331 330 329 329 330 330 330 330 330 328 329 328 328 328 327 327 326 326 324 323 321 319 319 322 327 330 329 329 328 328 328 327 326 325 325 326 326 326 324 320 314 317 323 325 326 323 321 322 322 322 322 322 322 322 322 321 320 320 319 319 320 323 323 323 323 324 325 325 325 325 324 323 322 321 320 320 320 320 320 320
328 330 330 330 331 331 329 328 327 327 328 328 329 328 328 329 328 327 328 326 325 324 324 323 322 322 321 318 319 324 329 329 328 328 327 327 326 327 326 325 325 325 324 320 316 312 316 321 323 323 322 320 322 322 322 322 321 321 321 322 321 321 320 320 320 322 323 323 323 323 324 325 325 325 324 323 322 320 320 320 320 320 320 320 320
328 330 331 330 331 330 329 328 328 327 327 327 327 327 328 329 328 327 326 325 323 321 322 322 321 321 321 319 316 322 328 328 328 327 326 326 326 325 324 325 326 325 323 320 319 319 321 322 320 321 320 320 321 321 322 322 321 321 321 322 322 322 321 321 322 323 323 323 323 323 323 324 324 324 323 322 320 319 319 320 320 320 320 320 320
329 330 331 330 330 330 329 328 328 327 327 327 327 327 328 329 328 327 325 323 321 321 321 321 320 320 320 320 318 321 327 328 327 327 326 325 324 322 321 325 325 324 324 322 322 321 321 322 319 319 318 319 320 321 322 322 321 321 321 322 322 323 323 323 324 323 323 323 323 323 324 325 324 324 323 321 320 319 319 319 319 320 320 320 320
330 331 331 329 329 329 329 329 327 327 327 327 327 327 328 327 327 326 324 322 321 321 320 318 318 317 317 319 321 324 327 328 326 325 325 323 321 320 320 321 321 323 324 321 320 317 316 319 320 317 317 319 320 320 321 321 321 321 321 322 323 323 324 324 324 323 323 323 323 324 325 325 324 323 322 321 320 319 319 319 319 319 320 320 319
330 332 331 329 329 329 328 328 327 326 326 327 327 327 327 326 326 325 323 322 320 320 318 315 316 316 314 316 321 325 327 327 326 323 322 320 319 320 320 319 320 324 323 318 316 314 312 316 319 318 317 318 319 319 319 320 320 320 321 321 322 322 323 323 322 322 323 323 323 324 325 324 323 323 322 321 320 319 320 320 319 319 319 319 319
330 331 330 329 329 329 328 328 327 326 326 327 326 326 326 325 325 324 323 321 320 320 317 316 318 319 318 318 322 325 326 326 325 323 323 322 321 321 322 320 321 324 321 317 316 315 313 312 314 317 317 317 318 318 319 319 319 320 320 320 320 321 321 321 321 322 323 323 324 324 324 324 323 322 322 321 320 320 320 320 320 319 318 318 318
328 329 329 329 329 329 328 328 326 325 327 327 325 325 324 324 324 323 322 321 321 320 318 319 321 323 324 324 325 325 324 325 325 324 324 324 323 324 324 322 322 324 321 319 317 315 315 312 310 314 316 317 318 318 318 318 318 319 320 320 320 321 321 321 321 322 322 323 323 323 323 323 322 322 321 320 320 321 321 320 320 319 318 318 317
327 328 328 328 329 329 328 327 326 326 328 327 326 325 324 324 323 323 322 321 321 320 319 320 321 322 323 325 326 325 324 324 324 324 324 324 325 325 325 324 322 321 320 318 317 315 314 313 311 312 314 317 318 318 318 318 318 318 319 319 319 320 320 320 321 322 323 323 323 323 323 323 322 321 320 320 320 320 320 320 321 320 319 318 317
326 326 327 328 328 328 328 327 327 327 328 327 326 325 324 324 323 323 322 322 322 320 321 321 321 321 321 322 324 324 324 324 323 323 322 322 323 324 322 321 319 318 319 318 317 317 315 314 312 312 314 317 318 317 317 318 318 318 318 318 318 319 319 320 320 321 322 323 323 322 322 322 321 320 319 319 320 320 320 320 321 320 319 319 318
327 326 327 327 328 328 327 327 327 327 327 325 325 325 324 324 323 323 322 322 322 321 322 322 322 322 321 320 320 323 324 323 323 322 319 318 318 317 317 318 316 317 319 318 318 318 317 315 312 312 314 316 317 316 317 317 317 318 317 317 317 317 318 319 320 320 321 322 322 322 322 321 321 320 319 318 319 320 320 320 320 319 318 318 318
326 326 326 327 328 328 327 327 327 327 326 325 325 325 325 324 323 322 322 322 322 322 323 324 323 322 322 321 320 323 325 323 321 319 317 316 316 315 315 316 315 315 317 317 318 318 318 317 313 312 314 315 316 316 316 316 316 317 317 317 316 316 317 318 319 319 321 321 322 321 321 322 321 320 319 319 319 319 319 319 320 319 318 317 316
326 326 326 327 328 327 326 326 327 327 326 325 325 325 325 324 323 322 323 322 322 322 322 324 323 322 322 322 322 323 323 321 320 318 318 318 317 317 316 316 315 315 314 314 315 316 317 317 315 314 314 314 315 315 315 315 315 316 316 316 315 315 316 316 318 318 320 321 321 321 321 321 321 320 319 319 319 319 318 318 319 320 318 317 316
325 325 326 327 327 328 327 327 327 327 326 325 325 325 325 324 322 323 323 323 323 322 322 323 323 323 323 322 322 321 320 320 318 318 319 318 318 317 316 316 315 315 314 313 314 315 316 317 316 315 315 314 314 314 314 314 315 315 315 315 314 314 314 315 316 317 318 319 320 321 320 320 320 320 320 319 319 319 318 318 319 319 319 317 317
325 325 326 326 327 328 328 327 327 327 326 325 325 325 325 324 323 323 323 323 323 322 321 322 322 323 323 322 321 320 319 319 319 319 318 318 317 317 316 315 315 314 314 313 313 314 315 316 316 315 314 314 314 314 314 314 314 314 314 314 313 313 313 314 314 315 316 317 318 319 319 319 319 320 320 319 319 319 319 319 319 319 319 319 318
324 325 325 326 327 328 328 328 327 327 326 325 325 326 325 324 323 323 323 323 323 322 321 321 321 322 323 322 322 320 320 319 319 319 318 318 317 316 316 315 314 313 313 312 312 312 313 314 314 314 314 313 314 314 313 314 314 314 314 313 313 313 313 313 313 313 314 314 315 316 317 317 317 318 319 319 319 320 319 320 320 320 320 320 319
323 324 325 325 326 327 327 328 327 327 326 326 326 326 325 325 324 323 323 323 322 322 321 321 321 321 322 322 322 321 320 320 319 319 319 318 317 316 315 314 313 313 312 311 310 310 311 312 313 313 313 312 312 312 312 312 312 313 313 313 313 313 313 312 312 313 313 313 314 314 314 314 315 316 316 317 318 319 318 318 319 319 319 320 319
321 323 325 325 326 326 327 327 327 327 326 326 327 326 326 325 324 323 324 324 322 322 321 321 321 321 322 322 322 321 320 320 319 319 319 318 317 316 315 314 313 313 312 311 310 310 310 311 311 311 312 312 311 311 311 311 312 312 312 312 312 312 312 312 312 312 312 313 313 313 313 313 313 313 313 314 315 315 315 315 316 316 317 317 317
319 321 323 325 326 326 326 327 327 327 326 326 327 327 326 325 324 323 324 324 323 322 322 321 321 321 321 321 321 320 320 320 319 319 319 318 317 315 314 313 312 311 310 310 309 309 309 309 310 310 310 311 311 310 310 310 311 311 311 311 311 312 311 312 312 312 312 312 312 313 313 313 312 313 313 312 313 313 313 313 313 313 314 314 315
318 319 322 323 325 325 326 327 327 326 326 326 326 326 326 325 324 324 324 323 322 322 322 322 321 321 321 320 320 320 320 320 320 319 319 318 317 315 314 312 311 310 309 308 308 307 308 308 309 309 309 309 310 310 310 310 310 309 310 310 310 311 311 311 311 311 312 311 312 312 312 312 312 312 312 312 312 312 312 312 312 313 313 313 313
317 318 320 322 324 325 325 326 327 327 327 326 326 325 325 324 323 324 324 323 322 322 322 322 321 321 321 320 320 320 321 320 320 319 318 318 316 315 314 312 311 311 309 307 304 304 307 307 308 309 309 308 308 309 309 310 309 306 306 307 308 309 310 310 311 311 312 311 311 312 311 311 312 311 311 311 311 311 311 311 311 311 311 311 311
315 317 318 320 322 324 324 325 326 326 326 326 325 325 325 324 323 323 323 323 323 322 322 322 321 321 320 320 320 320 320 320 319 319 318 317 315 314 313 312 312 311 308 305 301 302 306 307 307 308 309 309 307 307 308 308 306 304 303 303 303 305 307 307 309 309 309 311 310 311 311 311 312 311 312 311 311 311 311 311 310 309 309 308 308
315 316 317 319 320 322 324 324 325 325 325 326 326 325 325 325 324 323 323 323 322 322 322 322 321 320 320 320 320 320 320 319 319 318 317 316 315 313 312 312 311 309 306 303 301 303 306 305 306 307 307 307 307 305 306 306 304 303 302 299 298 301 302 301 304 307 307 309 309 310 310 310 310 310 309 309 308 307 307 306 305 304 304 303 302
315 315 316 317 318 321 323 324 324 324 324 325 325 325 325 324 324 324 324 323 322 322 322 322 321 320 319 320 320 320 319 319 318 317 316 315 314 313 312 312 310 307 304 302 301 303 305 305 304 306 306 306 305 304 305 306 305 303 298 295 294 295 298 295 296 300 302 304 306 307 308 307 305 303 301 299 298 298 298 297 297 297 297 297 297
314 315 316 317 317 319 321 323 323 323 323 323 324 324 324 324 323 323 322 321 321 321 320 320 320 319 318 319 319 319 319 319 318 317 316 315 314 313 312 311 309 306 303 301 300 301 304 305 304 305 305 305 304 302 303 304 305 304 297 296 295 297 302 298 294 296 296 296 298 298 299 298 297 295 293 293 293 293 294 294 294 295 295 296 296
314 315 316 317 318 318 320 322 323 323 322 322 322 322 323 323 322 321 320 318 317 317 318 318 318 318 318 318 319 319 318 318 317 316 315 315 314 312 311 310 309 306 302 300 299 299 302 304 304 304 304 304 304 302 302 301 302 302 297 297 298 301 303 298 297 300 296 294 295 294 293 293 293 293 293 294 294 295 295 296 296 296 296 296 296
312 315 316 317 318 318 319 321 322 322 322 321 321 321 321 322 322 321 319 318 317 316 317 318 319 318 318 318 318 318 318 317 316 316 315 315 313 312 311 310 310 307 303 300 299 298 299 302 304 303 302 303 302 301 301 300 299 298 296 296 298 299 299 298 300 302 299 297 296 295 295 295 295 295 295 295 296 296 296 296 296 296 296 296 296
311 313 315 316 318 318 318 320 321 322 322 321 321 321 321 321 321 321 319 319 318 317 317 317 318 319 318 318 317 316 316 316 315 315 315 314 313 312 311 310 310 309 305 302 300 297 297 300 303 303 302 301 300 300 299 299 297 296 296 297 297 298 298 298 298 299 303 303 298 297 297 295 296 296 295 296 295 295 296 296 296 296 297 297 298
310 312 313 315 317 318 318 319 320 321 321 321 320 321 321 321 321 321 319 318 318 317 316 316 317 318 318 318 316 315 314 314 314 315 315 314 313 313 312 310 310 310 308 304 301 299 297 298 300 301 302 301 300 299 298 297 296 295 296 297 297 297 297 297 296 295 299 302 300 300 297 295 296 296 295 296 295 296 297 298 299 299 300 300 300
309 311 312 314 315 317 317 318 319 320 320 320 320 319 320 320 320 320 319 318 317 316 316 315 316 316 317 316 315 314 313 313 313 314 314 313 312 313 313 312 311 311 311 306 301 299 298 298 298 298 299 300 299 298 297 296 295 295 296 297 297 296 295 295 295 294 295 296 298 297 294 294 296 296 297 298 298 299 299 300 301 301 301 300 300
309 310 311 312 313 315 316 317 318 319 319 319 319 318 319 319 319 320 319 318 317 316 315 314 314 314 315 314 313 313 313 313 313 313 312 312 312 313 313 313 312 311 311 308 303 300 299 298 297 298 298 298 297 297 297 296 295 295 296 296 297 298 298 297 295 295 294 294 296 295 292 293 294 296 298 299 299 300 300 300 300 300 300 300 300
Wind_Speed
8 8 9 11 14 14 14 17 17 17 17 14 12 13 14 14 14 13 13 12 11 12 12 12 13 13 12 10 9 7 6 4 4 3 2 2 0 0 3 5 7 9 11 11 12 17 20 20 22 24 25 27 28 28 27 26 26 25 24 24 21 19 19 19 20 21 20 18 16 16 15 14 14 13 13 13 14 15 16 16 16 16 16 16 16
12 11 10 10 14 15 14 15 16 17 17 17 16 16 16 15 15 15 14 13 12 12 13 13 13 14 13 11 9 8 7 5 4 3 3 1 1 2 4 6 8 11 13 14 16 20 21 23 25 25 26 27 28 28 28 27 26 25 23 22 20 18 18 19 19 21 20 18 18 17 15 14 14 14 14 13 14 16 17 17 17 17 17 16 17
13 12 12 11 13 14 15 14 15 16 16 17 18 18 18 16 16 16 15 14 14 14 14 14 14 14 13 12 10 9 8 6 5 4 3 1 1 2 5 7 10 12 14 17 21 23 24 27 28 28 28 28 29 27 27 27 26 24 23 22 20 19 20 19 19 21 20 19 19 18 16 14 14 14 14 14 15 16 18 18 18 18 18 17 18
14 13 13 12 12 13 15 15 14 16 16 17 18 19 20 19 18 16 15 15 15 15 15 15 14 14 14 13 11 10 8 7 7 5 4 2 1 4 7 9 12 15 17 20 23 25 27 28 28 28 29 29 28 25 26 27 26 25 24 23 22 21 21 21 20 21 21 20 20 19 16 15 15 15 15 15 16 17 19 19 18 19 20 20 21
17 16 14 13 12 13 16 16 16 16 18 19 18 20 20 20 19 17 17 15 14 15 15 15 15 14 14 13 13 11 8 8 8 7 5 3 4 6 10 13 16 18 21 23 24 27 28 28 28 29 30 29 26 25 26 27 26 25 24 24 24 23 23 22 22 22 22 21 20 18 17 17 17 15 16 16 16 19 20 20 19 20 21 21 22
18 17 15 13 12 14 17 17 18 17 19 20 18 19 18 19 19 17 17 15 14 14 15 15 15 15 14 14 13 12 8 8 9 8 8 7 7 8 11 17 20 22 25 27 27 28 28 28 29 29 29 28 26 27 28 27 26 25 24 24 24 24 23 22 22 22 22 21 20 19 17 17 17 16 16 16 17 19 20 20 21 22 21 21 22
16 16 15 14 13 15 18 17 18 18 18 20 18 18 18 17 18 17 16 15 14 15 15 15 15 16 16 15 14 13 10 9 10 10 11 12 12 12 13 19 22 25 28 28 29 29 29 28 28 28 27 27 28 29 27 26 26 25 24 23 23 23 23 22 22 22 22 21 19 18 17 17 17 17 16 16 17 20 20 20 22 22 21 21 21
15 16 16 16 14 16 20 17 16 17 19 20 18 17 17 17 17 16 15 14 14 15 16 16 15 16 16 15 14 14 12 10 11 11 12 14 17 17 16 19 23 27 30 30 31 30 29 28 27 28 26 26 28 28 27 27 26 24 23 23 23 22 23 22 21 22 21 20 18 18 18 18 18 17 17 17 19 20 21 21 23 22 21 22 21
16 17 16 17 16 18 21 18 16 17 19 19 16 16 16 16 15 15 15 14 14 15 16 16 15 15 14 15 15 15 13 11 12 12 13 15 18 20 19 20 25 27 30 30 29 29 28 27 26 27 26 25 28 28 27 27 25 23 22 23 22 22 22 21 21 22 21 19 18 18 18 18 18 18 19 19 20 22 22 22 23 22 22 22 21
17 17 18 18 18 20 22 20 18 17 18 17 16 15 15 15 14 14 14 13 15 15 15 15 14 14 13 12 15 15 14 13 13 14 15 17 18 21 21 20 24 25 28 30 28 28 28 27 26 26 26 25 27 27 27 26 24 22 21 21 20 20 21 21 20 20 20 19 18 18 17 18 19 20 21 21 22 25 24 24 24 24 22 21 21
18 18 18 17 18 21 21 19 18 17 18 17 15 14 15 15 14 15 15 14 15 15 15 15 13 13 13 11 12 14 15 14 15 15 16 19 19 20 20 19 23 26 28 29 28 27 27 27 26 26 26 24 25 27 27 25 22 21 20 19 20 21 21 20 20 20 20 20 20 18 17 18 20 21 21 22 23 25 25 23 23 23 21 20 20
18 18 17 17 19 22 20 17 17 16 17 16 14 14 15 15 15 16 16 16 15 14 15 15 13 12 13 10 10 12 14 16 17 17 18 22 22 23 22 20 22 25 26 28 27 27 26 26 25 25 25 24 25 25 23 22 21 21 21 20 21 22 21 21 20 19 20 21 21 19 17 16 18 19 20 20 20 21 21 19 20 20 19 19 19
18 17 17 18 21 23 21 18 16 15 16 15 13 14 14 14 16 16 15 16 16 14 14 14 13 13 12 11 10 11 14 16 19 19 20 23 24 24 25 25 23 23 25 26 27 27 27 26 25 25 24 23 23 22 22 23 22 21 22 23 23 23 22 21 20 18 19 20 20 19 17 15 16 17 18 17 16 17 17 17 18 19 18 18 18
17 18 16 19 23 25 22 18 16 15 15 13 12 14 15 14 15 15 14 15 15 14 14 14 13 13 12 12 11 12 14 17 20 22 23 24 24 24 25 26 25 24 22 22 24 25 25 26 25 24 24 22 21 20 22 23 22 22 24 26 24 24 23 22 19 18 19 20 20 18 18 16 15 15 16 16 16 17 17 17 18 19 19 18 17
17 17 15 20 24 26 23 18 17 16 15 14 13 15 15 15 15 14 14 15 15 14 14 14 14 13 13 12 12 14 17 19 22 24 24 23 24 24 23 24 24 24 21 19 21 23 24 26 25 24 24 21 19 20 22 21 23 25 26 26 25 24 23 22 19 18 20 21 19 18 18 17 17 17 18 18 18 18 18 18 19 19 19 19 17
18 15 15 21 24 26 23 18 17 18 18 17 16 16 15 15 17 16 14 15 16 14 13 13 14 14 13 13 13 15 19 22 23 23 23 23 23 24 24 24 24 24 24 21 19 21 24 27 27 27 24 21 20 20 21 23 26 27 27 26 25 23 22 21 19 19 20 19 18 17 16 17 19 20 20 21 21 19 19 19 19 19 19 18 17
18 16 17 22 25 25 22 19 19 20 19 18 17 18 17 16 18 17 14 17 17 14 13 13 14 13 13 14 14 15 20 23 24 23 24 25 24 24 26 26 25 26 27 25 22 21 23 26 28 27 24 22 23 21 23 26 27 27 27 25 23 22 21 20 19 18 18 17 18 18 17 17 19 20 20 21 20 19 18 18 19 19 19 18 17
17 18 20 23 24 22 20 20 20 21 20 18 18 19 19 17 17 17 17 19 17 15 14 13 13 12 14 15 15 16 20 22 24 25 25 27 27 26 26 26 25 25 26 27 25 23 23 26 27 25 23 25 25 23 25 27 27 27 26 25 23 22 21 20 18 18 19 20 20 19 18 17 18 19 20 20 19 18 17 17 17 18 19 18 16
16 18 22 24 24 21 19 20 21 21 21 19 19 20 19 17 17 17 18 19 17 17 16 15 14 14 14 15 16 17 20 21 23 25 26 27 28 28 27 26 25 23 22 24 26 24 23 25 26 24 24 26 25 25 26 26 26 26 25 25 24 23 21 20 19 19 21 22 21 19 18 17 18 19 19 20 19 18 17 17 17 18 19 18 17
16 18 24 26 24 23 20 20 22 20 21 21 20 20 19 17 18 19 19 19 19 19 18 17 16 15 13 14 16 18 20 20 23 26 27 27 27 28 28 27 26 23 22 22 23 23 23 24 25 24 25 26 25 26 26 25 25 24 24 23 23 22 21 20 20 20 22 22 20 19 18 17 18 18 19 19 19 19 18 18 18 19 19 18 18
18 18 23 26 25 25 23 20 21 20 20 21 20 21 19 18 20 20 20 19 19 19 18 18 17 16 14 13 16 18 20 21 25 29 29 28 28 28 28 27 26 23 22 22 22 21 22 24 27 27 27 27 26 26 25 24 23 22 22 22 22 21 21 22 21 21 23 22 20 20 20 18 18 19 20 19 20 19 18 18 18 19 19 19 18
21 19 22 27 26 26 25 21 20 19 19 20 19 21 20 19 21 20 19 18 18 18 18 18 17 18 17 16 16 18 21 23 26 29 29 29 29 30 28 26 25 23 22 21 21 20 20 22 27 31 29 27 26 26 25 23 22 21 20 20 21 21 22 23 22 22 22 21 21 21 20 19 19 20 21 20 20 19 18 19 19 19 19 19 18
23 22 23 27 28 27 26 24 21 19 18 20 20 21 21 20 21 21 19 18 17 17 18 18 18 18 19 19 19 20 23 24 27 29 29 29 30 29 28 28 26 24 22 20 21 21 20 20 25 30 29 27 26 25 24 23 21 20 20 20 21 22 23 23 22 22 21 21 21 21 20 20 20 20 21 20 19 19 18 19 19 19 19 19 18
26 26 25 26 27 26 26 25 23 21 20 21 22 22 21 20 21 21 19 18 17 17 18 19 17 17 19 20 21 22 25 27 28 30 30 30 30 28 27 28 27 24 23 23 23 21 20 22 26 28 28 28 26 25 24 23 22 21 21 20 22 23 24 23 22 21 21 21 21 21 21 21 21 21 21 20 19 19 19 19 18 18 19 20 19
27 26 26 26 26 27 27 25 24 23 23 23 24 24 23 22 21 21 20 19 18 18 18 18 18 19 20 20 22 25 27 29 30 31 32 31 30 28 26 27 26 25 24 23 22 22 21 24 27 27 28 28 26 25 25 24 22 21 21 22 23 23 23 23 21 21 21 20 21 21 21 22 21 21 20 20 19 19 18 18 18 18 19 18 18
24 25 27 28 26 28 28 26 24 24 24 25 25 25 24 24 24 22 21 21 20 20 19 20 21 22 22 22 24 27 29 31 32 32 32 31 31 30 28 26 27 26 24 20 19 23 24 25 27 26 28 28 25 24 25 25 23 21 21 22 23 23 23 22 21 21 21 21 21 22 21 21 21 20 20 20 20 19 19 19 18 18 17 17 17
25 27 29 28 27 29 30 29 26 24 26 27 25 24 25 26 26 24 23 22 22 21 21 22 23 23 23 24 28 30 31 32 33 32 31 32 32 32 30 28 28 27 24 21 20 24 24 24 25 26 27 28 25 23 24 24 23 23 22 22 22 23 23 22 21 21 21 21 21 22 21 20 20 20 19 19 19 19 19 18 18 18 16 15 16
26 28 29 29 29 30 31 30 27 26 29 29 27 26 26 27 27 26 25 24 23 23 23 24 23 23 24 26 30 31 32 33 34 33 31 31 32 32 31 29 28 26 24 23 24 25 24 24 25 27 28 27 25 23 23 23 22 23 23 22 22 23 23 22 21 21 21 21 22 20 19 20 20 19 18 18 18 18 18 17 18 18 16 15 15
27 28 29 30 31 30 30 30 28 29 31 29 28 27 28 28 27 28 27 26 25 25 25 26 25 24 25 27 29 31 33 34 33 33 32 32 32 32 31 30 28 25 24 25 25 26 25 25 25 28 30 28 25 22 22 22 22 22 23 23 22 23 23 21 20 20 21 22 21 19 17 20 20 18 17 16 17 17 16 17 17 18 17 17 16
29 29 29 31 32 32 30 30 30 32 31 28 29 30 29 29 29 29 28 27 26 26 27 27 28 27 27 28 28 29 33 34 33 32 32 33 33 32 31 29 26 24 25 25 25 25 25 24 25 28 31 30 26 23 22 22 22 22 21 22 21 22 22 21 20 19 21 21 20 18 17 19 19 18 17 16 17 17 16 16 16 17 17 17 17
29 29 30 30 31 34 32 31 32 33 31 28 29 31 29 30 30 30 29 28 27 26 28 29 30 31 30 29 27 29 34 34 34 32 32 33 32 31 30 28 26 26 27 26 25 24 24 23 24 28 30 31 27 23 22 22 22 21 20 20 20 20 21 21 20 19 20 21 20 18 17 17 18 17 17 17 16 16 16 15 15 16 15 15 17
31 32 32 31 31 34 34 32 33 33 31 30 30 30 30 30 30 31 31 29 28 27 28 30 31 31 33 32 31 33 35 34 34 33 33 33 31 30 29 28 27 27 26 26 25 24 24 24 24 26 29 29 27 23 23 22 21 20 19 19 18 19 20 20 19 18 19 20 19 19 17 16 17 17 18 18 16 15 14 14 15 15 14 14 15
33 34 33 33 32 34 35 34 34 33 32 32 32 31 30 30 31 32 33 31 29 29 29 30 30 30 33 34 35 36 36 36 36 35 34 33 31 30 29 27 25 25 23 24 25 24 24 25 25 26 27 28 26 24 23 22 20 19 18 18 17 17 17 17 18 17 18 19 19 19 18 16 17 17 17 17 16 14 14 14 15 15 16 15 13
33 32 33 34 34 33 35 35 34 35 34 32 33 31 29 30 32 33 33 33 32 30 30 30 30 30 32 34 35 36 37 38 38 36 34 32 30 29 28 26 24 24 22 22 23 23 24 25 26 27 26 27 26 24 24 23 21 20 18 17 16 15 15 15 16 16 16 16 17 18 18 16 17 17 16 15 15 15 16 15 14 14 13 13 12
34 33 35 36 35 33 35 36 36 36 35 33 33 32 31 31 32 33 33 34 34 32 31 31 31 31 32 33 34 35 37 38 37 35 33 30 28 27 26 25 24 23 22 21 22 23 24 24 26 26 26 26 26 24 24 23 22 20 18 16 15 14 14 15 14 14 14 14 15 16 16 16 15 16 16 15 15 15 15 14 13 12 11 11 12
37 36 36 36 36 35 34 35 37 38 36 34 34 33 33 32 31 33 34 35 35 34 32 31 32 32 32 33 33 34 36 37 35 33 31 29 27 26 25 25 24 23 23 22 22 22 23 24 24 25 26 25 25 24 23 22 21 19 18 16 15 15 14 13 13 13 13 13 13 14 14 14 14 14 15 15 14 13 12 12 11 10 10 10 10
39 38 36 36 38 36 35 35 37 39 37 36 36 35 34 32 31 32 35 36 36 35 34 33 33 32 32 33 33 33 34 35 34 31 29 27 26 26 25 25 25 25 23 22 21 22 23 24 23 24 25 25 25 24 23 21 20 19 18 17 16 15 15 13 12 12 12 11 11 12 12 12 12 13 13 13 13 12 11 10 10 9 9 9 9
39 39 38 37 38 38 37 36 36 38 39 38 37 36 34 31 30 33 35 36 37 36 35 35 34 33 33 33 34 32 33 33 32 30 28 26 24 24 25 24 24 24 23 22 21 22 23 25 25 23 23 25 25 25 24 22 21 20 19 18 17 15 14 14 13 12 12 11 11 11 10 10 10 11 11 10 11 11 9 9 8 8 8 7 8
39 39 39 38 37 37 38 37 37 38 38 39 38 37 35 33 32 34 34 35 37 37 36 36 36 35 34 34 34 34 33 33 32 30 28 25 23 23 23 23 24 24 23 23 23 23 24 25 26 24 23 23 25 25 24 22 21 20 19 17 16 15 15 14 14 13 13 12 12 12 11 10 10 9 10 10 10 10 9 9 9 8 8 8 8
40 39 39 38 37 38 37 37 39 40 38 37 38 38 36 36 35 36 36 35 36 37 37 38 37 36 35 34 35 35 35 33 33 31 29 27 25 25 25 24 25 24 24 25 25 26 26 26 27 26 24 21 22 24 24 22 20 17 16 16 14 13 13 13 13 13 13 13 13 13 12 12 11 11 11 11 11 12 12 12 12 12 11 11 11
36 38 39 39 39 39 39 37 37 39 39 38 38 38 38 37 35 36 37 35 35 36 37 38 39 38 37 35 35 35 35 34 34 33 30 29 28 27 28 27 27 26 26 26 26 26 27 27 27 27 26 23 22 22 24 24 20 14 11 11 12 12 12 13 13 14 14 14 14 14 13 13 13 13 13 13 13 14 14 14 15 15 15 15 15
36 39 41 42 41 40 40 41 39 38 40 41 39 37 38 39 36 35 36 35 36 37 37 38 40 40 39 38 37 35 35 35 35 33 32 31 30 30 30 30 29 27 27 26 25 26 28 28 29 28 26 24 22 21 23 22 16 13 10 7 6 8 11 13 14 14 15 15 15 15 15 15 15 15 15 15 15 15 15 16 16 16 16 16 16
39 41 42 43 43 41 41 41 41 41 40 40 40 38 38 40 38 36 36 35 36 38 38 38 40 41 40 40 38 37 37 36 35 34 33 33 32 32 32 31 30 29 28 27 27 28 29 29 30 30 27 24 21 20 22 20 14 13 10 4 2 4 6 11 15 17 16 16 16 16 16 16 16 16 16 16 15 15 15 15 15 15 15 15 14
36 38 39 41 42 43 42 42 42 44 43 40 40 39 36 37 37 37 38 37 36 38 37 37 39 40 40 41 40 39 39 38 37 36 35 35 34 33 32 31 31 30 30 30 30 30 31 31 31 32 31 27 22 20 22 21 18 16 9 2 2 3 2 7 12 15 16 17 18 18 18 17 16 16 15 14 14 14 14 14 13 13 12 12 11
35 39 42 43 44 45 46 44 43 43 43 43 42 38 33 33 34 33 34 34 35 37 37 37 39 39 41 42 41 41 40 40 39 38 37 36 35 34 32 31 30 30 30 31 31 32 32 33 32 33 33 31 26 23 22 21 21 20 12 4 3 2 3 4 5 6 10 13 16 18 18 17 16 14 13 12 11 10 10 9 8 7 6 5 5
36 42 46 47 46 47 47 45 43 43 43 43 44 41 35 33 34 33 32 33 34 36 39 41 40 39 41 42 43 43 42 41 40 39 37 36 36 34 33 32 30 31 31 30 32 32 33 34 34 33 33 33 30 27 24 22 21 21 16 7 2 2 4 5 4 2 2 4 7 10 12 12 11 10 8 7 5 4 3 2 1 1 0 1 1
40 44 46 46 46 46 47 46 44 43 43 43 44 43 40 36 36 36 36 35 34 34 39 43 43 41 40 42 43 43 43 42 41 40 38 36 36 35 35 34 31 30 31 32 32 32 33 34 34 34 32 32 31 30 29 26 22 21 18 11 4 4 8 8 4 3 3 1 1 4 6 7 6 5 4 4 4 4 3 3 2 2 2 1 2
42 42 42 43 45 45 46 47 45 44 44 45 45 44 42 40 38 36 35 36 37 36 38 42 43 42 41 41 42 42 42 43 42 41 40 38 37 35 35 35 32 30 31 32 32 31 32 33 33 33 32 31 31 30 31 31 27 23 20 13 8 8 10 9 6 5 5 3 1 2 4 4 4 4 4 3 3 3 2 1 2 2 2 3 3
39 41 43 44 45 45 46 46 45 45 44 45 47 46 43 41 39 37 33 33 35 36 38 40 42 43 42 41 40 41 41 42 42 42 41 40 39 38 37 36 34 32 31 32 32 32 32 33 33 33 32 31 29 28 30 34 32 28 25 18 12 11 9 8 7 6 5 4 2 2 3 4 4 4 3 2 2 2 2 3 4 3 2 2 3
36 39 41 42 42 43 43 44 45 45 45 46 48 48 45 41 38 38 35 32 31 32 35 39 41 43 42 41 40 40 40 41 41 42 42 41 40 39 38 37 36 33 31 32 33 33 33 32 33 33 33 32 30 28 27 31 32 31 30 26 20 14 9 5 6 6 6 5 2 2 3 4 4 3 2 2 3 3 3 3 1 1 4 6 7
32 33 35 38 40 40 41 43 44 44 44 46 47 47 46 43 39 38 37 35 32 31 33 36 39 41 41 41 40 40 41 41 41 41 41 41 40 40 39 37 37 35 33 33 33 33 32 31 31 32 33 33 32 30 28 29 31 31 29 29 25 21 17 13 14 14 8 4 4 3 4 5 3 2 1 0 0 1 2 4 7 8 9 10 10
Wind_Direction
181 191 198 191 188 182 171 174 171 171 168 166 174 159 162 172 168 174 173 171 173 173 169 162 159 152 151 151 151 145 136 143 146 139 159 199 329 208 186 185 179 175 174 168 167 157 150 150 146 143 144 143 139 138 136 131 128 128 129 128 127 122 118 119 119 114 111 111 110 109 110 109 108 109 110 110 109 108 108 106 104 102 99 98 99
192 201 208 198 194 192 184 181 176 176 177 172 167 162 168 173 168 173 175 174 175 172 168 164 159 153 153 151 150 142 139 147 147 152 169 201 246 195 185 186 177 171 170 165 163 157 152 150 146 144 145 143 140 139 136 133 133 134 133 132 129 121 115 115 119 119 119 120 119 116 112 113 111 110 112 113 112 109 108 105 103 102 100 101 103
194 203 214 207 193 196 196 190 182 178 179 169 159 164 172 175 174 177 176 174 173 171 168 165 161 156 153 150 147 139 142 154 154 154 156 173 224 175 168 173 170 168 166 162 163 158 153 149 146 146 145 142 140 139 137 137 136 135 133 132 126 116 109 108 118 123 123 124 122 119 117 120 115 112 113 114 115 113 111 108 104 101 101 102 103
200 203 212 215 197 194 200 199 191 180 173 166 164 172 175 176 177 177 174 174 173 172 170 165 162 156 150 148 144 137 147 160 154 148 143 125 120 149 148 154 163 164 161 159 160 156 153 150 148 147 145 142 140 139 138 137 135 133 131 128 120 111 106 108 121 126 124 123 123 119 118 117 112 115 119 117 115 115 113 108 104 101 102 102 101
204 207 213 218 206 193 193 199 197 185 177 177 179 181 179 174 172 173 173 174 176 176 172 166 160 152 145 142 138 136 150 160 149 138 127 103 118 144 147 153 160 161 159 156 155 154 154 152 151 149 145 143 140 139 138 136 133 131 127 122 115 109 107 111 122 127 125 123 121 119 117 112 109 113 117 116 116 116 113 109 105 102 100 100 101
203 206 213 212 207 195 190 200 202 193 184 188 188 183 180 174 169 168 173 176 175 176 171 164 157 147 143 140 137 137 147 156 146 130 116 102 113 135 149 156 159 160 159 155 152 152 151 150 149 147 144 142 140 140 139 134 130 127 123 119 114 111 111 114 122 126 125 122 119 117 115 112 110 109 111 114 118 118 114 111 107 103 100 99 100
204 203 212 207 205 199 193 200 205 199 191 192 187 180 180 174 170 167 172 179 175 174 166 157 153 149 145 141 141 140 141 147 141 129 118 108 112 125 142 156 159 156 154 151 150 148 146 145 143 141 140 140 142 141 137 131 127 124 121 119 116 116 115 116 123 126 123 120 118 117 115 113 113 111 112 114 120 120 114 110 107 103 101 100 99
205 202 212 211 207 200 200 197 195 197 195 194 183 179 180 174 172 169 175 180 175 173 164 153 150 148 143 139 141 141 141 145 139 132 130 118 115 118 129 148 154 150 146 147 149 146 144 142 139 137 137 139 141 139 133 128 125 124 123 122 122 121 117 115 124 128 122 118 117 117 114 112 113 112 113 114 116 116 110 106 104 100 99 99 98
204 203 209 214 211 202 208 203 189 191 195 193 182 179 177 175 174 172 179 181 175 171 162 152 147 142 139 138 140 142 145 149 141 137 141 130 121 118 122 135 141 141 141 142 143 141 139 137 136 136 136 139 139 134 130 128 126 127 127 127 127 125 119 116 127 130 123 119 117 116 113 114 115 111 112 112 110 109 104 102 100 97 96 97 96
203 204 208 218 218 207 213 209 193 190 195 192 185 182 177 179 178 177 180 179 176 172 164 152 147 143 137 139 142 143 144 147 143 139 143 137 129 123 121 126 131 134 136 136 135 134 133 132 132 134 136 138 137 133 132 130 128 130 131 133 134 130 124 123 129 128 121 118 118 117 114 114 112 109 111 110 108 105 102 101 100 96 95 96 95
203 205 211 222 218 206 207 202 190 189 192 188 187 188 186 184 182 182 178 176 175 172 168 153 148 146 137 142 147 145 144 144 144 142 141 138 135 128 124 121 124 130 132 130 130 131 130 129 128 131 134 135 134 133 133 131 129 133 136 137 139 136 131 130 129 124 119 116 116 115 113 114 111 110 112 112 111 108 107 107 104 100 96 96 94
205 207 216 224 210 198 196 186 182 187 190 190 195 197 197 191 183 181 176 177 173 166 167 157 152 147 139 146 152 149 147 144 145 146 141 138 137 134 130 123 120 125 127 126 127 130 130 128 126 127 132 134 134 130 131 132 131 137 139 139 140 139 134 131 127 122 121 118 116 114 112 114 113 113 115 115 114 113 114 110 105 104 99 95 93
208 213 221 223 204 194 190 180 181 189 191 196 201 198 198 192 184 182 179 179 174 167 163 158 155 149 144 149 152 150 148 144 147 147 141 138 135 133 132 128 124 121 121 124 126 129 128 128 128 128 131 133 132 131 135 137 135 137 141 142 141 138 133 129 125 123 125 124 121 119 117 115 114 116 117 117 114 114 115 109 106 105 99 96 96
214 216 221 220 205 196 189 181 184 192 196 199 197 192 192 190 184 180 184 181 176 174 166 161 157 152 151 150 152 150 146 144 146 146 141 137 133 132 132 131 129 121 119 124 126 129 129 128 129 130 130 130 131 137 142 142 139 140 141 142 141 136 130 125 123 126 129 128 126 126 127 125 121 119 117 116 113 111 110 108 105 101 97 98 102
219 217 217 215 206 197 190 184 186 194 195 192 192 189 189 190 185 182 186 182 176 174 169 165 155 151 153 149 151 150 146 144 145 145 141 137 132 130 132 135 133 124 122 126 130 134 134 131 129 131 129 129 135 138 140 142 142 144 143 142 140 135 129 123 122 128 130 128 129 132 134 132 124 119 116 112 110 108 107 106 102 101 99 98 102
220 220 218 209 202 196 191 188 189 194 193 191 191 185 185 187 189 191 185 180 178 166 160 160 151 149 149 146 150 150 148 145 143 143 142 137 132 130 134 136 134 131 130 130 133 136 137 134 132 134 132 133 137 132 133 139 143 144 143 141 139 134 129 122 119 125 129 129 133 133 131 128 121 118 114 109 109 109 109 107 104 105 102 99 102
217 218 219 207 198 195 192 191 193 192 192 192 189 182 182 185 190 192 176 177 179 158 150 153 150 149 144 143 146 149 150 147 144 144 144 139 135 136 138 135 134 136 137 136 135 135 137 137 136 134 134 139 139 131 132 138 142 145 144 142 140 136 131 123 120 123 126 126 129 127 122 122 121 119 115 110 109 110 111 109 106 108 106 103 106
213 214 216 206 195 192 192 194 197 193 191 190 189 185 184 187 190 185 172 176 175 159 153 149 148 147 141 140 141 148 154 151 147 147 146 142 139 140 139 138 140 140 138 137 137 138 139 140 138 134 137 144 142 137 136 138 140 143 143 143 141 138 133 126 126 128 127 126 125 122 120 123 123 119 116 112 110 111 113 115 112 111 109 108 108
210 212 211 206 195 191 194 196 199 196 193 189 189 188 186 187 188 183 174 171 165 159 155 146 142 140 138 141 143 150 158 154 147 148 147 145 143 142 141 140 140 141 141 141 140 141 141 140 140 139 142 146 144 142 141 140 141 141 142 143 141 139 135 131 132 135 133 130 127 125 126 126 122 119 117 114 115 115 117 121 118 112 110 111 112
208 212 207 202 196 194 195 198 198 197 195 191 189 188 186 184 184 181 173 167 161 159 156 149 145 138 136 145 150 154 159 156 146 145 144 143 143 143 143 141 138 140 142 143 145 146 145 144 145 144 145 145 144 143 142 142 143 143 144 144 143 142 139 138 139 140 137 136 134 133 135 131 124 123 121 119 119 117 117 121 119 115 115 117 116
206 210 204 198 199 198 196 199 198 198 198 193 191 187 184 181 181 179 171 170 167 166 164 159 156 149 145 150 155 155 159 159 149 144 144 145 145 143 144 143 141 139 139 142 147 149 147 147 149 147 146 146 144 142 141 142 143 145 147 147 146 145 144 144 145 145 143 143 141 138 138 134 130 129 127 125 121 118 120 123 122 120 121 121 118
203 208 207 203 205 200 197 203 200 201 200 195 193 188 185 181 181 179 172 173 172 172 170 166 164 160 161 161 159 158 161 162 154 149 147 148 148 145 143 143 142 140 143 145 144 143 140 144 151 152 149 148 146 143 142 143 146 149 150 150 149 148 148 149 150 149 148 146 143 140 138 135 133 132 129 127 124 122 124 126 126 125 123 121 120
200 205 209 208 210 203 199 202 199 200 198 193 190 187 186 182 181 178 172 174 173 173 171 166 164 162 165 165 164 163 164 165 160 156 152 151 151 148 145 143 144 144 146 144 140 141 141 147 154 154 151 149 146 144 145 146 151 155 154 154 152 152 151 153 153 152 151 148 144 141 140 138 135 132 129 127 127 129 129 128 128 127 125 123 120
197 204 206 208 213 209 201 200 199 198 195 192 190 188 188 183 181 179 176 174 173 174 170 167 166 163 165 166 166 164 165 165 162 160 157 155 154 153 150 148 148 148 148 146 144 145 149 154 155 157 156 151 147 145 147 150 154 157 157 156 154 155 154 155 155 153 151 149 145 142 142 140 136 134 131 129 132 133 132 129 128 128 127 124 122
194 199 201 205 214 212 203 198 199 200 199 195 191 190 190 188 184 181 180 176 175 175 171 172 172 169 169 167 165 163 164 165 163 162 160 158 157 156 156 154 151 152 154 152 150 149 153 157 158 160 159 153 150 149 151 153 156 158 158 157 156 158 157 157 157 154 151 150 148 144 144 140 137 137 133 134 138 138 137 133 131 131 129 126 123
195 194 197 202 210 210 206 201 198 201 203 199 193 191 191 189 186 183 180 177 177 175 170 173 173 171 171 169 167 163 163 166 166 164 162 161 159 158 160 157 153 156 160 160 158 153 154 160 163 163 160 156 152 151 155 156 158 159 159 158 159 160 158 159 159 154 151 152 150 146 145 142 140 139 136 138 139 141 142 139 137 134 131 129 125
197 196 197 200 203 203 204 204 202 203 205 202 196 192 189 185 184 184 182 178 177 173 168 168 170 170 169 169 168 165 164 167 168 166 164 162 159 159 161 159 157 161 164 164 160 157 156 159 164 166 162 160 154 152 156 158 159 160 159 159 161 160 157 158 159 155 154 156 154 149 148 146 144 141 140 140 140 142 142 139 138 134 132 132 129
201 200 196 197 199 198 201 204 204 204 204 202 199 195 189 184 182 183 184 181 179 176 170 166 167 168 167 169 168 165 166 168 167 167 165 162 161 160 161 162 161 163 165 164 161 161 162 160 162 167 167 164 158 154 156 158 162 162 161 160 161 163 159 159 160 156 156 157 155 153 151 148 146 145 143 143 142 142 140 140 140 137 135 135 133
204 203 197 196 198 196 199 202 202 202 201 198 197 196 192 187 185 184 183 183 182 180 173 166 167 167 168 171 171 168 167 169 169 169 168 165 163 162 162 164 164 164 165 165 164 163 166 165 164 168 170 168 163 158 158 160 164 165 163 162 163 166 164 162 161 157 157 157 156 155 153 151 150 148 148 146 146 144 142 145 145 141 138 137 136
206 204 199 197 198 197 196 199 200 199 199 196 193 195 195 192 189 187 184 183 184 181 174 170 170 169 170 171 173 174 171 170 172 172 171 169 166 166 166 167 167 166 165 165 166 166 168 169 169 171 172 170 167 164 163 162 164 166 165 165 165 167 169 168 164 159 158 158 158 156 152 151 152 149 148 147 148 147 145 145 144 141 140 140 138
206 203 202 199 198 198 197 198 199 198 199 201 195 194 197 196 193 190 186 184 185 182 176 175 173 171 172 171 174 179 176 172 172 171 170 169 167 168 168 168 168 166 167 168 169 172 172 170 172 175 175 172 169 168 169 167 164 166 167 167 168 168 170 172 169 163 161 161 161 160 154 150 151 150 148 148 149 148 147 145 141 140 142 145 142
207 204 202 200 198 197 198 198 198 197 200 205 202 197 198 198 195 192 189 186 186 184 180 179 177 176 176 174 177 180 178 176 174 170 168 167 166 167 167 168 168 167 170 172 174 177 175 172 173 177 176 174 172 171 174 173 168 167 168 168 170 170 170 172 171 167 164 164 163 164 159 151 151 152 151 153 152 148 147 148 149 147 146 149 146
208 206 202 201 201 198 198 199 197 198 200 204 203 199 198 198 196 194 190 188 188 187 184 182 181 180 178 177 178 177 177 176 173 169 167 166 166 167 167 168 168 169 172 175 178 180 178 176 177 178 177 175 174 172 175 177 173 170 171 171 172 172 171 172 173 169 166 166 166 167 164 157 153 153 155 158 159 154 151 150 153 152 149 151 152
208 206 203 201 202 200 198 199 198 196 196 200 201 199 199 198 196 196 193 189 189 190 188 186 185 183 180 178 177 176 174 173 170 169 168 167 168 169 169 169 168 169 171 175 178 181 182 181 180 179 177 176 176 175 176 175 173 171 170 173 175 177 176 174 173 171 169 167 167 168 169 166 161 160 160 160 160 161 161 158 153 150 150 155 157
207 205 205 202 201 201 198 198 198 195 195 199 201 200 202 200 196 197 197 193 190 192 190 188 187 185 182 180 179 176 172 172 171 170 170 170 170 169 169 170 170 170 172 177 180 183 185 184 182 180 176 176 177 175 176 174 171 172 173 175 179 182 180 176 173 171 171 171 170 170 171 172 171 170 170 167 162 160 164 166 160 152 150 155 159
206 206 206 202 202 202 200 199 198 196 195 199 201 200 200 200 197 198 199 197 192 191 192 191 190 188 186 184 183 179 174 174 173 173 174 174 172 170 170 170 171 174 176 181 184 184 185 186 186 186 180 176 176 176 177 177 174 174 176 178 181 185 185 182 179 176 174 174 175 176 175 174 174 175 177 176 172 167 167 170 168 163 160 158 161
205 206 205 202 202 203 203 203 200 198 196 196 198 198 197 198 199 199 199 198 194 192 191 192 192 191 191 188 186 184 181 178 177 177 179 178 176 174 173 173 174 177 179 181 184 184 184 184 183 188 187 181 179 179 179 180 178 175 176 178 180 185 189 189 188 186 185 183 182 183 182 179 176 178 181 182 183 183 179 175 173 173 174 171 168
205 206 205 203 202 202 204 205 203 199 197 195 195 196 196 198 200 200 199 196 195 193 191 193 194 193 193 191 188 188 188 184 182 182 183 181 180 179 178 179 181 183 184 184 184 183 185 184 181 184 188 185 183 182 181 181 179 176 174 175 179 182 186 189 190 191 192 192 193 193 192 190 187 186 189 192 194 196 194 191 192 191 191 195 195
204 204 205 204 202 201 202 204 204 202 199 196 195 195 197 199 199 200 201 197 195 194 192 193 195 194 194 193 191 191 191 190 189 189 188 186 186 185 185 186 188 187 187 188 187 186 185 184 181 178 181 186 187 186 183 180 177 175 175 175 179 183 185 188 192 194 194 193 194 197 200 203 205 205 208 213 216 219 221 219 218 219 217 220 225
202 202 203 203 202 200 200 201 202 203 201 197 194 193 194 196 196 196 199 197 194 194 195 195 195 195 195 194 193 193 193 193 194 195 195 195 193 191 191 191 192 190 188 189 189 189 187 184 181 178 175 176 182 184 183 178 170 167 172 175 179 186 191 195 198 200 201 201 200 201 205 208 211 214 219 224 229 233 236 239 241 241 241 241 242
201 200 200 202 202 200 199 200 200 199 200 199 194 190 189 191 191 191 193 194 193 193 195 196 195 196 197 196 194 194 195 195 196 197 197 197 195 193 192 191 192 193 193 193 191 190 189 186 182 179 177 172 171 176 179 175 166 159 163 174 183 191 198 204 207 210 211 213 214 214 217 219 221 224 228 232 235 239 242 246 250 253 255 257 257
198 199 200 201 202 200 200 201 200 199 200 200 197 192 189 190 192 191 191 191 192 193 195 196 197 196 197 197 194 193 195 195 195 195 194 194 193 192 192 191 191 193 194 193 190 187 187 188 183 179 179 176 170 172 177 175 167 163 159 153 182 205 213 216 215 217 218 219 221 223 226 228 230 234 237 241 243 245 247 249 252 256 258 261 263
197 199 200 199 200 201 201 200 200 201 202 202 201 200 195 192 192 192 190 189 191 194 197 198 198 196 196 196 194 192 193 194 195 194 193 193 193 192 192 192 191 190 190 188 186 185 185 187 187 182 179 176 173 173 179 182 170 158 150 139 180 205 231 234 225 223 222 222 226 227 230 233 234 239 242 245 248 249 251 252 254 257 259 263 267
197 197 198 198 198 200 200 200 199 200 203 204 204 204 200 194 193 192 191 191 191 193 197 199 199 197 195 194 194 193 193 194 195 195 194 193 194 195 194 192 191 189 188 185 184 186 186 187 188 186 180 173 170 171 179 187 182 165 146 115 148 150 228 232 217 223 226 225 229 231 233 237 237 240 243 244 247 249 251 254 257 262 266 271 277
196 196 196 197 198 199 199 200 199 200 202 205 206 206 201 193 189 186 186 187 186 186 190 194 196 197 195 193 194 195 194 195 195 196 195 195 196 196 195 193 191 190 189 188 187 188 189 188 188 188 184 178 172 170 175 186 192 186 171 135 123 160 227 204 169 205 223 221 228 233 234 238 240 242 245 245 247 249 252 257 262 270 279 287 296
199 198 197 197 197 198 198 198 199 199 200 202 204 205 202 193 183 180 179 177 178 182 185 188 192 195 194 193 194 195 196 196 196 197 198 198 198 197 195 192 190 191 192 193 192 190 191 191 191 190 189 184 177 170 172 181 192 198 194 184 179 178 169 153 131 140 177 204 224 229 231 235 236 237 237 234 228 216 204 198 192 198 239 274 294
202 199 198 198 197 196 195 196 197 197 197 198 199 201 202 198 189 185 184 182 181 184 186 187 190 194 194 193 194 195 196 196 196 197 200 201 200 199 197 192 190 191 193 195 195 194 194 194 194 193 192 188 182 174 173 178 185 197 204 204 198 146 137 139 146 144 119 97 184 189 204 213 211 207 202 186 168 158 155 152 156 165 192 246 293
203 197 196 197 196 195 194 194 195 195 195 196 195 197 199 201 198 193 190 190 188 186 185 185 188 191 194 195 194 194 195 196 196 197 200 201 201 200 199 195 190 190 194 196 198 198 196 195 195 196 195 193 190 183 178 178 181 188 197 198 183 159 144 137 130 126 127 121 123 154 166 173 173 164 162 167 167 167 171 191 230 252 277 302 323
202 196 196 195 194 195 193 192 193 193 194 193 194 197 199 200 202 200 197 195 192 188 183 182 184 187 192 195 196 194 194 195 197 198 199 200 200 199 197 196 192 190 193 197 199 199 198 196 195 196 197 197 196 194 187 184 185 185 187 187 176 162 150 139 129 115 108 115 162 230 176 138 143 159 173 196 213 240 255 266 271 281 315 2 33
204 200 197 194 193 193 191 190 192 193 193 193 193 195 199 201 203 203 202 198 192 187 182 181 182 185 189 194 196 195 193 194 195 198 198 199 199 198 196 196 194 192 193 196 198 198 198 198 197 198 199 199 198 200 200 194 191 190 189 185 174 160 150 150 161 144 100 92 139 202 166 143 148 166 192 225 237 268 271 267 248 117 88 87 84
206 203 198 194 193 192 191 191 192 192 192 193 192 194 197 201 204 205 204 200 193 187 183 182 182 183 186 191 193 194 194 194 195 196 197 198 198 197 197 197 196 195 194 195 197 198 198 197 198 199 200 200 199 200 204 202 197 196 195 192 187 183 186 191 185 171 150 130 138 142 174 183 191 179 136 73 256 84 105 105 101 100 94 91 90